Regional Weather Roundup
Issued by NWS

Home | Current Version | Previous Version | Text Only | Print | Product List | Glossary On
Versions: 1 2 3 4 5 6 7 8 9 10 11 12 13 14 15 16 17 18 19 20 21 22 23 24 25 26 27
000
ASUS45 KTFX 120910
RWRMT
MONTANA REGIONAL WEATHER ROUNDUP
NATIONAL WEATHER SERVICE GREAT FALLS MT
200 AM MST TUE DEC 12 2017

NOTE: "FAIR" INDICATES FEW OR NO CLOUDS BELOW 12000 FEET WITH NO
SIGNIFICANT WEATHER AND/OR OBSTRUCTIONS TO VISIBILITY.

MTZ001>007-043-121000-
WEST OF THE DIVIDE

CITY           SKY/WX    TMP DP  RH WIND       PRES   REMARKS
KALISPELL      CLOUDY    22  21  96 CALM      30.57S
MISSOULA       FOG       18  15  88 CALM      30.58F VSB 1/4
BUTTE          FAIR      10   5  80 S3        30.47F
MULLAN PASS    FAIR      34   5  29 S7        30.43F WCI  28
ANACONDA         N/A     19   9  63 CALM      30.47R
DEER LODGE       N/A     14  10  85 CALM      30.50F
EUREKA           N/A     21  18  86 MISG      30.58F
HAMILTON         N/A      9   7  92 CALM      30.54F
LIBBY            N/A     25  19  80 CALM      30.58S
PLAINS           N/A     27  18  69 CALM      30.55S
RONAN            N/A     25  22  88 CALM      30.55R
THOMPSON FALLS   N/A     27  22  81 E5        30.58S
$$

MTZ008-052>055-121000-
SOUTHWEST MONTANA

CITY           SKY/WX    TMP DP  RH WIND       PRES   REMARKS
BOZEMAN        FAIR      10   5  80 CALM      30.46S
DILLON         FAIR      24  11  57 SW12      30.47S WCI  13
W YELLOWSTONE  FAIR       0  -4  85 CALM      30.57S
ENNIS          CLOUDY    25  10  54 SE7       30.51S WCI  17
THREE FORKS      N/A      7   3  83 CALM      30.39F
TWIN BRIDGES     N/A     18   6  59 CALM      30.40F
$$

MTZ009-010-012-014-046-048-049-054-121000-
EAST SLOPES AND CENTRAL MONTANA

CITY           SKY/WX    TMP DP  RH WIND       PRES   REMARKS
CUT BANK       FAIR      47  -3  12 W22       30.18F
GREAT FALLS    FAIR      44   7  21 SW16      30.26F
MALMSTROM AFB  FAIR      41  14  33 SW18      30.26F
HELENA         FAIR      18  14  84 CALM      30.46S
BOWMANS CRNR   FAIR      35  10  36 S22       30.28S WCI  23
CHOTEAU          N/A     46   0  14 W10       30.25S
FAIRFIELD      FAIR      40   8  27 SW18      30.24F
POWER          FAIR      33  10  38 SW12      30.24S WCI  24
RAYNESFORD     FAIR      39  20  47 CALM      30.26F
ULM            FAIR      38  12  33 S6        30.28F
$$

MTZ011-013-016-021-045-047-050-051-121000-
NORTH CENTRAL MONTANA

CITY           SKY/WX    TMP DP  RH WIND       PRES   REMARKS
HAVRE          FAIR      31  19  61 SW12      30.20F WCI  22
LEWISTOWN      FAIR      32  23  69 SE6       30.26F WCI  26
N BAR RANCH    FAIR      48  19  32 W7        30.27F
CHINOOK          N/A     19  16  86 CALM      30.21F
DENTON         FAIR      31  21  65 S12       30.21F WCI  22
GEYSER         FAIR      49  18  29 CALM      30.24F
GRASS RANGE    FAIR      48  20  32 W12       30.21F
STANFORD       FAIR      41  17  37 SW3       30.25F
WINIFRED       FAIR      44  20  39 SW10      30.22F
$$

MTZ017>020-022>027-061-062-121000-
NORTHEAST MONTANA

CITY           SKY/WX    TMP DP  RH WIND       PRES   REMARKS
GLASGOW        FAIR      27  21  78 CALM      30.19F
GLENDIVE       FAIR      23  20  88 SW9       30.23F WCI  13
JORDAN           N/A     22  16  78 W5        30.22F
SIDNEY         FAIR      23  21  92 S9        30.22F WCI  13
WOLF POINT     FAIR      20  17  88 CALM      30.21F
MALTA          CLEAR     19  18  93 W8        30.20F WCI   9
PLENTYWOOD       N/A     28  23  80 CALM      30.16F
POPLAR           N/A     25  21  86 CALM      30.21F
SCOBEY           N/A     26  15  63 CALM      30.13F
$$

MTZ028>42-056>058-121000-
SOUTHCENTRAL AND SOUTHEAST MONTANA

CITY           SKY/WX    TMP DP  RH WIND       PRES   REMARKS
BAKER          FAIR      26  23  88 W8        30.25F WCI  18
BILLINGS       FAIR      40  18  41 SW18      30.30F
LIVINGSTON     FAIR      43  20  39 W26       30.36F
MILES CITY     FAIR      22  20  92 S5        30.26F
BIG TIMBER     CLEAR     43  16  33 W29       30.32F
EKALAKA          N/A     32  17  54 S5        30.20F
FORSYTH          N/A     25  19  80 CALM      30.26F
LAUREL           N/A     36  18  48 SW12      30.32F WCI  27
$$

REGIONAL REPORTS...DAKOTAS

CITY           SKY/WX    TMP DP  RH WIND       PRES   REMARKS
WILLISTON        N/A    N/A N/A N/A MISG      30.20F
MINOT          FAIR      30  26  85 SW14      30.14F WCI  19
DICKINSON      FAIR      24  22  91 SW7       30.20F WCI  16
BEACH          FAIR      27  25  93 SW7       30.26F WCI  19
CROSBY         MOCLDY    28  25  86 SW16      30.15F WCI  17
TIOGA          FAIR      27  27 100 W12       30.17F WCI  16
WATFORD CITY   FAIR      25  25 100 SW9       30.20F WCI  15
BISMARCK       FAIR      25  23  92 W3        30.24F
GRAND FORKS    CLOUDY    15  11  83 S7        30.22F WCI   5
FARGO          CLOUDY    11   7  84 S7        30.27F WCI   0
BUFFALO SD       N/A     24  20  84 W13       30.19F WCI  12
RAPID CITY     FAIR      21  15  78 CALM      30.31F
$$

REGIONAL REPORTS...WYOMING/IDAHO/WASHINGTON

CITY           SKY/WX    TMP DP  RH WIND       PRES   REMARKS
GILLETTE       FAIR      34  17  50 W7        30.31F WCI  28
SHERIDAN       FAIR      22  16  78 CALM      30.31F
BUFFALO WY     FAIR      39   3  22 NW3       30.33F
CODY           FAIR      25  18  74 CALM      30.38S
YELLOWSTONE LA   N/A      9   6  88 CALM      30.58F
IDAHO FALLS    FAIR      12   9  87 N3        30.57F
SALMON         CLOUDY    14  12  92 CALM      30.71S FOG
BOISE          CLOUDY    24  21  88 N5        30.67S
SPOKANE        SNOW      25  25 100 CALM      30.59R VSB 1/2
$$

REGIONAL REPORTS...ALBERTA

CITY           SKY/WX    TMP DP  RH WIND       PRES   REMARKS
EDMONTON       CLEAR     34  23  64 SW10      29.96F WCI  26
CALGARY        PTCLDY    41  23  48 S9        30.07F
LETHBRIDGE     CLEAR     52   0  11 W30G41    30.12F
MEDICINE HAT   CLEAR     36  21  55 SW7       30.11F WCI  30
$$

REGIONAL REPORTS...SASKATCHEWAN

CITY           SKY/WX    TMP DP  RH WIND       PRES   REMARKS
SWIFT CURRENT  CLEAR     32  19  59 SW15      30.07F WCI  22
REGINA         CLOUDY    30  25  80 SW12      30.07F WCI  21
SASKATOON      CLEAR     28  23  80 S8        29.99F WCI  20
$$




USA.gov is the U.S. government's official web portal to all federal, state and local government web resources and services.